STARLINK-35695

Last updated on Wed Dec 31 2025 00:02:06 GMT+0000 (Coordinated Universal Time)

1 66558U 25268B 25364.58335648 .00063532 00000+0 23020-2 0 9992 2 66558 43.0011 17.7162 0001669 272.8595 191.2313 15.27528035 6021
UTC large
Height (km)
Speed (km/s)
/
Latitude / Longitude
Inclination (degrees)
Orbital Period (minutes)
Azimuth
Elevation
Range (km)
Doppler Factor

Next 0 passes for location: London (51.5072 / 0.1276)

Sorry there are no passes over London.